SCP
0 0 0 0 0 0 0 0 0 0 0 0 0 0 0 0 0 -0 -0 -0 -0 0 -0 -0 0 0 0 0 0 0 0 0 0 -0 0 0 0 0 0 0 0 0 0 0
0 0 0 0 0 0 0 -0 0 0 0 0 0 0 -0 -0 -0 0 -0 -0 -0 -0 -0 -0 0 0 0 0 0 0 0 0 0 0 0 0 0 0 0 0 0 0 0 0
0 0 0 0 0 0 0 0 0 0 0 0 0 0 -0 -0 0 -0 -0 -0 -0 -0 0 0 -0 -0 0 0 0 0 0 0 0 0 0 0 0 0 0 0 0 0 0 0
0 0 0 0 0 0 0 0 0 0 0 0 0 0 0 -0 -0 -0 -0 -0 -0 0 0 0 -0 0 0 0 0 0 0 0 -0 -0 0 0 0 0 0 0 0 -0 -0 0
0 0 0 0 0 0 0 0 0 0 0 0 0 0 0 0 -0 0 -0 -0 -0 0 0 0 0 0 0 0 0 0 0 0 0 -0 -0 0 0 0 0 -0 0 -0 0 0
0 0 0 0 0 0 0 0 0 0 0 0 0 0 -0 0 0 0 -0 -0 0 0 0 0 0 0 0 0 0 0 0 0 0 0 0 0 0 0 -0 0 0 0 0 0
0 0 0 0 0 0 0 0 0 0 0 0 0 -0 -0 -0 0 0 -0 0 0 0 0 0 0 0 0 0 0 0 0 0 0 0 0 0 0 0 0 0 0 0 0 0
0 0 0 0 0 0 0 0 0 0 0 0 0 0 -0 -0 -0 0 0 0 0 0 0 0 0 0 0 0 0 0 0 0 0 0 0 0 0 0 0 0 0 0 0 -0
0 0 0 0 0 0 0 0 0 0 0 0 0 0 0 -0 -0 0 0 0 0 0 0 0 0 0 0 0 0 0 0 0 0 -0 0 0 0 0 0 0 0 0 0 0
0 0 0 0 0 0 0 0 0 0 0 0 0 0 0 -0 -0 0 0 0 0 0 0 0 0 0 0 0 0 0 0 0 0 0 0 -0 0 0 0 0 0 0 0 0
0 0 0 0 0 0 0 0 0 0 0 0 0 0 -0 -0 -0 0 0 0 0 0 0 0 0 0 0 0 0 0 0 0 0 0 0 0 0 0 0 0 -0 0 0 0
0 0 0 0 0 0 0 0 0 0 0 0 -0 -0 0 -0 0 0 0 0 0 0 0 0 0 0 0 0 0 0 0 0 0 0 0 0 0 0 0 0 0 0 -0 -0
0 0 0 0 0 0 0 0 0 0 0 0 0 0 0 0 0 0 0 0 0 0 0 0 0 0 0 0 0 0 0 0 0 0 0 0 0 0 0 0 0 0 0 0
0 0 0 0 0 0 0 0 0 0 0 0 0 0 0 0 0 0 -0 0 0 0 0 0 0 0 0 0 0 0 0 0 0 0 0 0 0 0 0 0 0 0 0 0
0 0 0 0 0 0 0 0 0 0 0 0 0 0 0 0 -0 0 0 -0 0 0 0 0 0 0 0 0 0 0 0 0 0 0 0 0 0 0 0 0 0 0 0 0
0 0 0 0 0 0 0 0 0 0 0 0 0 0 0 0 0 0 -0 0 0 0 0 0 0 0 0 0 0 0 0 0 0 0 0 0 0 0 0 0 0 0 0 0
0 0 0 0 0 0 0 0 0 0 0 0 0 0 0 0 0 0 0 0 0 0 0 0 0 0 0 0 0 0 0 0 0 0 0 0 0 0 0 0 0 0 0 0
0 0 0 0 0 0 0 0 0 0 0 0 0 0 0 0 0 0 0 -0 0 0 0 0 0 0 0 0 0 0 0 0 0 0 0 0 0 0 0 0 0 0 0 0
0 0 0 0 0 0 0 0 0 0 0 0 0 0 0 0 -0 0 -0 0 0 0 0 0 0 0 0 0 0 0 0 0 0 0 0 0 0 0 0 0 -0 -0 0 0
0 0 0 0 0 0 0 0 0 0 0 0 0 -0 -0 0 -0 0 -0 -0 0 0 0 0 0 0 0 0 0 0 0 0 0 0 0 0 0 0 0 0 0 0 0 0
0 0 0 0 0 0 0 0 0 0 0 0 0 0 -0 0 -0 0 0 0 0 0 0 0 0 0 0 0 0 0 0 0 0 0 0 0 0 0 0 0 0 0 0 0
0 0 0 0 0 0 0 0 0 0 0 0 0 0 -0 0 0 0 0 0 0 0 0 0 0 0 0 -0 0 -0 -0 -0 -0 -0 -0 0 0 0 0 0 0 0 0 0
0 0 0 0 0 0 0 0 0 0 0 0 0 -0 0 0 0 0 0 0 0 0 0 0 0 0 0 0 -0 -0 -0 0 0 0 0 0 0 0 0 0 0 0 0 0
0 0 0 0 0 0 0 0 0 0 0 0 0 0 0 0 0 0 0 0 0 0 0 0 0 0 -0 0 0 -0 0 -0 -0 -0 -0 -0 0 0 0 -0 -0 0 0 0
0 0 0 0 0 0 0 0 0 0 0 0 0 0 -0 -0 0 0 0 0 0 0 0 0 0 0 0 0 0 -0 0 0 0 0 0 -0 -0 -0 -0 0 0 0 0 0
0 0 0 0 0 0 0 0 0 0 0 0 0 0 -0 -0 0 0 0 0 0 0 0 0 0 0 0 0 0 0 0 -0 0 -0 -0 -0 -0 -0 -0 0 0 0 0 0
0 0 0 0 -0 0 0 0 0 0 0 0 0 -0 -0 0 0 0 0 0 0 0 0 0 0 0 0 0 0 0 0 0 0 0 0 0 0 0 0 0 0 0 0 0
Wind_Speed_500mb
77 76 76 74 78 80 39 23 10 37 35 22 15 14 20 22 28 30 10 15 20 23 26 26 21 19 12 17 15 6 5 15 26 44 31 34 32 40 26 12 13 4 3 9
75 74 73 70 70 63 46 28 12 20 43 13 16 23 28 19 26 20 16 13 18 25 16 16 14 15 20 20 22 6 14 16 27 32 24 34 29 28 23 14 11 11 13 10
71 71 69 66 64 49 31 22 11 13 11 22 19 23 24 25 21 13 21 13 17 27 23 17 18 22 23 25 18 12 11 17 29 23 31 31 36 35 31 19 9 14 12 34
68 65 64 62 59 46 38 21 11 10 12 16 25 21 22 25 23 12 20 8 25 18 12 21 24 21 18 33 10 9 10 25 29 23 32 35 36 36 38 30 28 28 43 23
64 59 59 58 56 39 21 24 16 22 32 26 25 13 23 26 28 8 16 19 34 24 9 17 12 21 25 23 16 17 4 10 12 27 33 33 30 33 39 35 35 31 26 30
60 54 50 52 50 44 19 28 18 13 29 14 15 16 24 23 25 6 13 25 25 19 18 30 29 23 34 20 22 19 14 12 20 18 38 37 34 36 36 31 30 19 4 39
57 51 44 44 40 35 20 20 21 17 16 19 19 26 27 23 20 15 24 17 14 11 41 41 29 31 26 18 23 24 19 20 4 18 22 22 13 23 33 33 25 22 22 24
52 49 38 38 32 28 19 18 15 13 16 35 23 24 27 28 22 18 18 20 17 35 31 13 12 14 18 30 31 18 25 21 13 7 17 9 22 14 14 14 20 1 23 43
46 43 35 32 29 22 19 16 10 14 22 4 32 31 32 13 17 14 9 27 22 15 7 10 14 12 20 24 20 27 25 19 19 23 10 3 3 26 8 13 8 21 41 34
46 39 35 29 27 20 19 19 26 11 19 27 25 27 23 21 12 10 18 15 12 9 5 10 12 17 30 24 39 28 22 23 20 19 7 19 14 23 16 19 10 10 43 42
41 33 31 28 26 18 17 20 29 17 20 63 30 27 37 28 22 5 14 17 4 4 4 6 5 8 13 12 32 41 26 24 21 24 19 16 22 16 5 15 25 27 33 39
38 36 32 31 27 17 15 23 26 35 35 50 61 57 54 53 47 23 6 11 14 5 5 5 8 7 6 18 11 11 29 25 20 17 10 14 21 26 25 22 33 35 44 51
37 32 33 31 29 21 17 28 24 33 36 59 31 22 18 21 23 25 17 12 8 5 9 5 5 8 11 8 16 22 16 8 11 12 13 15 12 19 16 27 36 47 47 51
36 33 28 30 29 25 25 29 25 26 19 11 17 4 17 18 23 28 26 22 24 24 18 7 5 6 5 9 15 18 4 10 19 8 13 19 17 25 28 36 42 49 50 52
35 30 27 28 28 26 30 34 34 31 21 12 40 55 24 21 39 41 33 32 28 26 7 7 6 7 10 9 11 18 10 10 14 13 33 18 36 36 41 49 51 52 56 55
31 27 27 27 24 22 21 9 10 19 30 13 9 26 24 20 23 28 37 43 34 19 7 8 8 8 4 6 7 18 22 8 9 6 23 36 46 48 48 55 54 53 54 50
29 29 27 27 22 19 18 8 3 12 11 9 14 11 9 24 27 23 16 21 14 15 9 12 7 5 11 5 6 12 16 18 15 27 46 52 54 60 60 61 56 53 49 45
27 27 25 24 23 28 31 26 34 25 15 12 8 10 23 19 17 12 12 8 9 12 9 5 7 11 10 7 8 13 16 20 32 44 47 51 58 62 62 68 58 55 47 43
22 25 22 20 10 13 15 21 21 24 24 10 10 7 8 8 18 8 15 11 5 6 5 8 5 3 7 3 13 17 19 32 53 50 56 59 57 57 56 58 52 54 45 40
15 8 7 9 9 14 9 8 11 16 17 16 18 35 18 27 19 4 8 12 5 4 6 9 4 3 6 15 18 19 12 40 53 64 63 61 56 52 48 46 45 45 43 40
7 6 6 7 13 8 11 12 13 15 9 17 26 41 24 20 12 5 10 5 6 4 5 4 3 2 13 20 24 25 44 56 47 52 50 52 54 49 46 42 42 42 39 37
7 10 16 10 9 14 10 9 12 14 11 17 20 17 29 19 9 8 7 4 7 4 5 4 1 7 25 34 45 51 51 46 49 43 46 46 45 44 45 45 43 40 38 35
5 6 7 9 11 10 12 16 10 9 11 8 8 11 16 16 12 10 7 9 5 3 5 3 6 18 34 44 50 40 35 47 48 49 47 47 46 42 41 42 37 37 35 31
8 9 9 11 12 13 16 20 12 10 12 10 14 15 9 14 7 7 7 2 4 6 6 1 14 40 32 40 43 54 54 50 49 49 48 47 45 43 39 37 36 35 33 30
9 10 10 15 24 15 13 19 20 16 17 15 13 14 18 7 7 6 4 6 5 6 2 11 38 40 49 44 48 52 55 53 50 48 45 43 42 40 39 34 32 31 31 29
11 17 18 21 18 19 26 19 18 15 12 14 16 7 7 10 6 7 9 5 6 2 4 32 45 49 43 48 49 50 48 47 46 42 41 39 37 38 38 35 32 30 29 29
12 16 31 37 25 21 19 10 17 11 17 8 8 8 8 5 6 7 5 2 8 13 13 24 49 54 43 46 48 50 47 45 43 41 38 37 37 38 37 36 32 30 28 26
Wind_Direction_500mb
360 359 359 360 360 358 13 339 2 345 351 43 2 23 311 347 339 10 326 280 312 317 151 178 190 154 161 212 159 218 17 160 162 179 197 198 213 206 217 198 181 214 186 72
356 358 359 360 4 2 356 340 322 2 28 41 8 348 355 4 0 359 346 317 327 297 170 182 181 166 154 203 182 323 160 152 161 179 199 186 219 208 198 256 277 210 135 200
350 355 357 360 3 12 7 341 338 359 350 39 14 358 1 9 6 339 335 283 310 316 169 179 173 173 154 189 135 325 21 173 182 183 192 179 205 201 186 218 207 215 122 149
346 349 353 359 4 16 12 10 23 9 312 350 332 20 5 0 6 320 348 305 348 338 275 171 172 145 170 175 111 217 285 189 205 199 166 186 190 191 189 195 211 223 147 173
345 345 349 356 3 23 12 357 353 334 289 295 309 44 8 358 349 322 345 345 330 328 28 1 22 334 163 180 148 245 173 270 260 185 158 187 184 181 193 197 207 143 234 87
341 340 346 351 359 24 10 352 337 297 290 321 317 11 338 346 352 308 329 332 322 325 352 322 297 299 297 306 180 208 233 201 225 159 168 182 187 185 192 196 213 222 252 138
337 337 339 345 355 19 359 335 336 311 312 320 344 319 327 332 339 303 309 319 304 334 317 304 267 268 259 239 234 198 236 228 95 172 205 172 168 200 193 196 201 166 128 139
333 332 334 335 343 359 1 330 335 320 299 314 296 340 322 310 328 326 312 332 306 306 306 266 223 219 229 216 207 213 224 247 113 278 159 64 310 179 161 179 157 137 112 103
325 329 322 328 330 337 352 315 291 314 304 31 329 314 291 334 334 317 312 333 323 303 276 255 217 189 202 202 191 195 221 266 269 208 208 320 103 144 115 237 157 174 123 133
319 322 316 320 319 324 329 304 294 303 278 281 328 310 321 318 309 298 302 341 316 345 307 241 234 220 210 191 195 187 211 226 224 246 224 156 342 112 138 219 128 3 138 155
311 307 303 311 315 312 316 299 289 282 276 292 279 277 286 288 276 274 316 324 214 282 297 282 288 255 248 181 231 185 204 202 226 234 234 235 148 147 225 98 154 144 143 154
308 302 299 304 310 300 294 303 291 295 259 272 288 281 269 258 259 275 258 291 295 322 303 332 306 306 296 264 205 263 203 209 205 244 234 74 59 77 107 130 137 140 137 129
302 298 297 301 303 300 278 290 291 289 288 303 280 260 265 236 233 229 206 244 253 300 323 307 297 287 313 243 242 206 177 254 221 184 131 116 116 117 129 139 134 129 134 140
297 296 292 296 301 301 291 280 276 270 287 282 305 319 252 256 226 236 239 248 261 294 295 252 270 269 348 308 302 293 108 216 221 101 111 126 143 134 134 129 130 131 134 136
297 294 296 300 298 300 296 285 267 253 242 295 298 300 287 249 230 232 230 237 263 266 255 231 234 260 266 225 290 266 242 280 224 207 184 208 148 142 138 132 132 133 133 132
297 299 298 297 295 302 322 321 237 221 238 278 293 310 277 235 221 221 227 239 249 251 239 233 237 245 230 260 235 248 263 282 342 319 161 137 138 137 136 130 130 130 130 131
297 295 294 294 286 271 248 269 250 191 235 273 282 280 278 229 228 215 204 233 240 241 245 218 202 231 198 258 248 341 259 245 214 155 143 136 142 135 132 124 124 124 124 126
297 296 295 291 284 275 269 270 247 236 246 253 272 278 276 234 227 188 173 190 213 221 246 179 221 186 219 253 245 265 253 199 161 150 148 138 136 132 130 125 129 124 123 127
300 301 299 291 241 236 249 251 250 233 220 277 230 271 298 278 268 184 179 168 227 233 249 211 248 147 220 250 201 227 170 162 149 146 135 137 137 133 130 130 130 123 133 134
305 294 229 231 205 243 274 214 200 207 218 230 256 256 250 300 292 234 225 183 179 244 237 146 226 259 172 141 132 94 129 131 136 139 139 137 134 132 129 123 128 134 135 135
318 283 293 319 304 260 223 215 202 193 233 219 242 242 253 260 266 272 247 217 172 258 272 232 112 181 120 138 150 132 130 125 128 129 129 131 127 121 126 132 132 132 133 132
248 291 287 284 239 229 225 233 186 203 243 176 226 226 223 256 252 256 246 218 215 253 249 269 101 118 158 133 138 138 136 141 138 135 136 134 133 134 133 131 130 130 130 127
261 237 252 226 229 219 235 219 204 211 209 247 244 240 215 221 247 244 239 242 193 198 198 245 119 164 137 140 152 155 148 142 132 129 126 123 122 125 127 126 128 126 126 124
237 217 235 234 205 238 221 252 295 337 301 295 281 248 245 255 196 236 250 161 268 229 218 242 149 159 153 150 147 143 144 141 136 132 129 127 127 127 128 129 132 132 129 131
245 241 244 227 249 256 270 293 298 295 278 279 285 256 240 265 263 244 244 188 232 277 155 123 154 156 156 151 143 141 141 140 136 133 131 130 130 130 128 128 128 131 130 129
237 227 252 273 277 272 254 258 268 260 275 291 263 265 250 225 233 230 219 196 206 84 76 127 141 151 157 147 147 144 141 140 136 134 133 131 132 134 134 134 133 131 133 134
233 240 245 257 257 282 288 285 269 270 278 279 278 251 229 241 237 224 186 129 119 125 151 149 157 153 144 142 147 143 144 142 140 138 138 137 139 138 137 135 135 133 131 132
Wind_Speed_850mb
77 76 76 74 78 80 39 23 10 37 35 22 15 14 20 22 28 30 10 15 20 23 26 26 21 19 12 17 15 6 5 15 26 44 31 34 32 40 26 12 13 4 3 9
75 74 73 70 70 63 46 28 12 20 43 13 16 23 28 19 26 20 16 13 18 25 16 16 14 15 20 20 22 6 14 16 27 32 24 34 29 28 23 14 11 11 13 10
71 71 69 66 64 49 31 22 11 13 11 22 19 23 24 25 21 13 21 13 17 27 23 17 18 22 23 25 18 12 11 17 29 23 31 31 36 35 31 19 9 14 12 34
68 65 64 62 59 46 38 21 11 10 12 16 25 21 22 25 23 12 20 8 25 18 12 21 24 21 18 33 10 9 10 25 29 23 32 35 36 36 38 30 28 28 43 23
64 59 59 58 56 39 21 24 16 22 32 26 25 13 23 26 28 8 16 19 34 24 9 17 12 21 25 23 16 17 4 10 12 27 33 33 30 33 39 35 35 31 26 30
60 54 50 52 50 44 19 28 18 13 29 14 15 16 24 23 25 6 13 25 25 19 18 30 29 23 34 20 22 19 14 12 20 18 38 37 34 36 36 31 30 19 4 39
57 51 44 44 40 35 20 20 21 17 16 19 19 26 27 23 20 15 24 17 14 11 41 41 29 31 26 18 23 24 19 20 4 18 22 22 13 23 33 33 25 22 22 24
52 49 38 38 32 28 19 18 15 13 16 35 23 24 27 28 22 18 18 20 17 35 31 13 12 14 18 30 31 18 25 21 13 7 17 9 22 14 14 14 20 1 23 43
46 43 35 32 29 22 19 16 10 14 22 4 32 31 32 13 17 14 9 27 22 15 7 10 14 12 20 24 20 27 25 19 19 23 10 3 3 26 8 13 8 21 41 34
46 39 35 29 27 20 19 19 26 11 19 27 25 27 23 21 12 10 18 15 12 9 5 10 12 17 30 24 39 28 22 23 20 19 7 19 14 23 16 19 10 10 43 42
41 33 31 28 26 18 17 20 29 17 20 63 30 27 37 28 22 5 14 17 4 4 4 6 5 8 13 12 32 41 26 24 21 24 19 16 22 16 5 15 25 27 33 39
38 36 32 31 27 17 15 23 26 35 35 50 61 57 54 53 47 23 6 11 14 5 5 5 8 7 6 18 11 11 29 25 20 17 10 14 21 26 25 22 33 35 44 51
37 32 33 31 29 21 17 28 24 33 36 59 31 22 18 21 23 25 17 12 8 5 9 5 5 8 11 8 16 22 16 8 11 12 13 15 12 19 16 27 36 47 47 51
36 33 28 30 29 25 25 29 25 26 19 11 17 4 17 18 23 28 26 22 24 24 18 7 5 6 5 9 15 18 4 10 19 8 13 19 17 25 28 36 42 49 50 52
35 30 27 28 28 26 30 34 34 31 21 12 40 55 24 21 39 41 33 32 28 26 7 7 6 7 10 9 11 18 10 10 14 13 33 18 36 36 41 49 51 52 56 55
31 27 27 27 24 22 21 9 10 19 30 13 9 26 24 20 23 28 37 43 34 19 7 8 8 8 4 6 7 18 22 8 9 6 23 36 46 48 48 55 54 53 54 50
29 29 27 27 22 19 18 8 3 12 11 9 14 11 9 24 27 23 16 21 14 15 9 12 7 5 11 5 6 12 16 18 15 27 46 52 54 60 60 61 56 53 49 45
27 27 25 24 23 28 31 26 34 25 15 12 8 10 23 19 17 12 12 8 9 12 9 5 7 11 10 7 8 13 16 20 32 44 47 51 58 62 62 68 58 55 47 43
22 25 22 20 10 13 15 21 21 24 24 10 10 7 8 8 18 8 15 11 5 6 5 8 5 3 7 3 13 17 19 32 53 50 56 59 57 57 56 58 52 54 45 40
15 8 7 9 9 14 9 8 11 16 17 16 18 35 18 27 19 4 8 12 5 4 6 9 4 3 6 15 18 19 12 40 53 64 63 61 56 52 48 46 45 45 43 40
7 6 6 7 13 8 11 12 13 15 9 17 26 41 24 20 12 5 10 5 6 4 5 4 3 2 13 20 24 25 44 56 47 52 50 52 54 49 46 42 42 42 39 37
7 10 16 10 9 14 10 9 12 14 11 17 20 17 29 19 9 8 7 4 7 4 5 4 1 7 25 34 45 51 51 46 49 43 46 46 45 44 45 45 43 40 38 35
5 6 7 9 11 10 12 16 10 9 11 8 8 11 16 16 12 10 7 9 5 3 5 3 6 18 34 44 50 40 35 47 48 49 47 47 46 42 41 42 37 37 35 31
8 9 9 11 12 13 16 20 12 10 12 10 14 15 9 14 7 7 7 2 4 6 6 1 14 40 32 40 43 54 54 50 49 49 48 47 45 43 39 37 36 35 33 30
9 10 10 15 24 15 13 19 20 16 17 15 13 14 18 7 7 6 4 6 5 6 2 11 38 40 49 44 48 52 55 53 50 48 45 43 42 40 39 34 32 31 31 29
11 17 18 21 18 19 26 19 18 15 12 14 16 7 7 10 6 7 9 5 6 2 4 32 45 49 43 48 49 50 48 47 46 42 41 39 37 38 38 35 32 30 29 29
12 16 31 37 25 21 19 10 17 11 17 8 8 8 8 5 6 7 5 2 8 13 13 24 49 54 43 46 48 50 47 45 43 41 38 37 37 38 37 36 32 30 28 26
Wind_Direction_850mb
360 359 359 360 360 358 13 339 2 345 351 43 2 23 311 347 339 10 326 280 312 317 151 178 190 154 161 212 159 218 17 160 162 179 197 198 213 206 217 198 181 214 186 72
356 358 359 360 4 2 356 340 322 2 28 41 8 348 355 4 0 359 346 317 327 297 170 182 181 166 154 203 182 323 160 152 161 179 199 186 219 208 198 256 277 210 135 200
350 355 357 360 3 12 7 341 338 359 350 39 14 358 1 9 6 339 335 283 310 316 169 179 173 173 154 189 135 325 21 173 182 183 192 179 205 201 186 218 207 215 122 149
346 349 353 359 4 16 12 10 23 9 312 350 332 20 5 0 6 320 348 305 348 338 275 171 172 145 170 175 111 217 285 189 205 199 166 186 190 191 189 195 211 223 147 173
345 345 349 356 3 23 12 357 353 334 289 295 309 44 8 358 349 322 345 345 330 328 28 1 22 334 163 180 148 245 173 270 260 185 158 187 184 181 193 197 207 143 234 87
341 340 346 351 359 24 10 352 337 297 290 321 317 11 338 346 352 308 329 332 322 325 352 322 297 299 297 306 180 208 233 201 225 159 168 182 187 185 192 196 213 222 252 138
337 337 339 345 355 19 359 335 336 311 312 320 344 319 327 332 339 303 309 319 304 334 317 304 267 268 259 239 234 198 236 228 95 172 205 172 168 200 193 196 201 166 128 139
333 332 334 335 343 359 1 330 335 320 299 314 296 340 322 310 328 326 312 332 306 306 306 266 223 219 229 216 207 213 224 247 113 278 159 64 310 179 161 179 157 137 112 103
325 329 322 328 330 337 352 315 291 314 304 31 329 314 291 334 334 317 312 333 323 303 276 255 217 189 202 202 191 195 221 266 269 208 208 320 103 144 115 237 157 174 123 133
319 322 316 320 319 324 329 304 294 303 278 281 328 310 321 318 309 298 302 341 316 345 307 241 234 220 210 191 195 187 211 226 224 246 224 156 342 112 138 219 128 3 138 155
311 307 303 311 315 312 316 299 289 282 276 292 279 277 286 288 276 274 316 324 214 282 297 282 288 255 248 181 231 185 204 202 226 234 234 235 148 147 225 98 154 144 143 154
308 302 299 304 310 300 294 303 291 295 259 272 288 281 269 258 259 275 258 291 295 322 303 332 306 306 296 264 205 263 203 209 205 244 234 74 59 77 107 130 137 140 137 129
302 298 297 301 303 300 278 290 291 289 288 303 280 260 265 236 233 229 206 244 253 300 323 307 297 287 313 243 242 206 177 254 221 184 131 116 116 117 129 139 134 129 134 140
297 296 292 296 301 301 291 280 276 270 287 282 305 319 252 256 226 236 239 248 261 294 295 252 270 269 348 308 302 293 108 216 221 101 111 126 143 134 134 129 130 131 134 136
297 294 296 300 298 300 296 285 267 253 242 295 298 300 287 249 230 232 230 237 263 266 255 231 234 260 266 225 290 266 242 280 224 207 184 208 148 142 138 132 132 133 133 132
297 299 298 297 295 302 322 321 237 221 238 278 293 310 277 235 221 221 227 239 249 251 239 233 237 245 230 260 235 248 263 282 342 319 161 137 138 137 136 130 130 130 130 131
297 295 294 294 286 271 248 269 250 191 235 273 282 280 278 229 228 215 204 233 240 241 245 218 202 231 198 258 248 341 259 245 214 155 143 136 142 135 132 124 124 124 124 126
297 296 295 291 284 275 269 270 247 236 246 253 272 278 276 234 227 188 173 190 213 221 246 179 221 186 219 253 245 265 253 199 161 150 148 138 136 132 130 125 129 124 123 127
300 301 299 291 241 236 249 251 250 233 220 277 230 271 298 278 268 184 179 168 227 233 249 211 248 147 220 250 201 227 170 162 149 146 135 137 137 133 130 130 130 123 133 134
305 294 229 231 205 243 274 214 200 207 218 230 256 256 250 300 292 234 225 183 179 244 237 146 226 259 172 141 132 94 129 131 136 139 139 137 134 132 129 123 128 134 135 135
318 283 293 319 304 260 223 215 202 193 233 219 242 242 253 260 266 272 247 217 172 258 272 232 112 181 120 138 150 132 130 125 128 129 129 131 127 121 126 132 132 132 133 132
248 291 287 284 239 229 225 233 186 203 243 176 226 226 223 256 252 256 246 218 215 253 249 269 101 118 158 133 138 138 136 141 138 135 136 134 133 134 133 131 130 130 130 127
261 237 252 226 229 219 235 219 204 211 209 247 244 240 215 221 247 244 239 242 193 198 198 245 119 164 137 140 152 155 148 142 132 129 126 123 122 125 127 126 128 126 126 124
237 217 235 234 205 238 221 252 295 337 301 295 281 248 245 255 196 236 250 161 268 229 218 242 149 159 153 150 147 143 144 141 136 132 129 127 127 127 128 129 132 132 129 131
245 241 244 227 249 256 270 293 298 295 278 279 285 256 240 265 263 244 244 188 232 277 155 123 154 156 156 151 143 141 141 140 136 133 131 130 130 130 128 128 128 131 130 129
237 227 252 273 277 272 254 258 268 260 275 291 263 265 250 225 233 230 219 196 206 84 76 127 141 151 157 147 147 144 141 140 136 134 133 131 132 134 134 134 133 131 133 134
233 240 245 257 257 282 288 285 269 270 278 279 278 251 229 241 237 224 186 129 119 125 151 149 157 153 144 142 147 143 144 142 140 138 138 137 139 138 137 135 135 133 131 132